Location: Kawakawa
(35.3830°S, 174.0670°E)
Time: 09:56:54
(UTC+13:00)

Explorer 7 - Pass Details

Date: 11 December 2019
Orbit: 485 x 679 km, 50.3° (Epoch: 29 January)

Event Time Altitude Azimuth Distance (km) Brightness Sun altitude
Rises 13:02:31 0° 249° (WSW) 2,653 10.2 77.2°
Reaches altitude 10° 13:05:19 10° 270° (W) 1,791 9.6 77.3°
Maximum altitude 13:07:55 16° 309° (NW) 1,452 9.3 77.4°
Drops below altitude 10° 13:10:35 10° 349° (N) 1,849 9.8 77.5°
Sets 13:13:33 0° 10° (N) 2,782 10.6 77.6°
